Skip Page Navigation
NASA JPL Caltech
NASA Logo - Jet Propulsion Laboratory + View the NASA Portal
+ Center for Near-Earth Object Studies
JPL Home Earth Solar System Stars & Galaxies Technology
JPL Solar System Dynamics
BODIES ORBITS EPHEMERIDES TOOLS PHYSICAL DATA DISCOVERY FAQ SITE MAP
JPL Small-Body Database Browser
Search: [ help ]  
362499 (2010 TK34)
Classification: Main-belt Asteroid          SPK-ID: 2362499
Ephemeris | Orbit Diagram | Orbital Elements | Mission Design | Physical Parameters | Discovery Circumstances ]

[ show orbit diagram ]
Orbital Elements at Epoch 2459200.5 (2020-Dec-17.0) TDB
Reference: JPL 14 (heliocentric ecliptic J2000)
 Element Value Uncertainty (1-sigma)   Units 
e .2116147100848972 1.0044e-07  
a 2.577959169435182 3.1488e-08 au
q 2.032425087184453 2.744e-07 au
i 9.757874112675642 9.6383e-06 deg
node 33.23411097688667 4.3868e-05 deg
peri 281.2936337375131 4.9718e-05 deg
M 213.3563380850776 2.017e-05 deg
tp 2459816.347630851331
(2022-Aug-24.84763085)
8.3539e-05 TDB
period 1511.863139609162
4.14
2.77e-05
7.584e-08
d
yr
n .238116791506052 4.3627e-09 deg/d
Q 3.12349325168591 3.8151e-08 au
  Orbit Determination Parameters
   # obs. used (total)      137  
   data-arc span      5299 days (14.51 yr)  
   first obs. used      2006-10-12  
   last obs. used      2021-04-15  
   planetary ephem.      DE441  
   SB-pert. ephem.      SB441-N16  
   condition code      0  
   norm. resid. RMS      .68488  
   source      ORB  
   producer      Otto Matic  
   solution date      2021-May-04 12:18:17  

Additional Information
 Earth MOID = 1.04461 au 
 Jupiter MOID = 2.26654 au 
 T_jup = 3.374 
[ show covariance matrix ]

Ephemeris | Orbit Diagram | Orbital Elements | Mission Design | Physical Parameters | Discovery Circumstances ]

Physical Parameter Table
Parameter Symbol Value Units Sigma Reference Notes
absolute magnitude H 17.4   n/a MPO455617  

362499 (2010 TK34)          Discovered 2006-Oct-12 by Spacewatch at Kitt Peak
Reference: Last Updated: 2013-04-29

Alternate Designations
 2010 TK34 = 2006 TT36 
Ephemeris | Orbit Diagram | Orbital Elements | Mission Design | Physical Parameters | Discovery Circumstances ]
ABOUT SSD CREDITS/AWARDS PRIVACY/COPYRIGHT GLOSSARY LINKS
FirstGov 2021-Jun-13 18:37 UT
(server date/time)  
NASA Home Page
Site Manager:   Ryan S. Park
Webmaster  Alan B. Chamberlin